Location: Passau
(48.5830°N, 13.4830°E)
Time: 20:28:19
(UTC+02:00)

S-56A Canister/Altair - Pass Details

Date: 18 May 2024
Orbit: 637 x 2489 km, 38.9° (Epoch: 15 June)

Event Time Altitude Azimuth Distance (km) Brightness Sun altitude
Rises 13:36:38 0° 268° (W) 3,923 11.3 60.3°
Reaches altitude 10° 13:40:35 10° 251° (WSW) 2,642 10.7 60.1°
Maximum altitude 13:44:26 18° 210° (SSW) 1,888 10.4 59.9°
Drops below altitude 10° 13:47:43 10° 168° (SSE) 2,178 10.4 59.7°
Sets 13:50:33 0° 148° (SSE) 2,978 10.8 59.6°
